SCP
0 0 0 0 0 -0 0 0 0 0 0 0 0 0 0 0 -0 0 0 0 0 0 0 0 0 0 0 0 0 0 0 0 0 0 0 0 0 0 0 0 0 0 0
0 0 0 0 0 -0 0 0 0 -0 0 0 0 0 0 0 0 0 0 0 0 0 0 0 0 0 0 0 0 0 0 0 0 0 0 0 0 0 0 0 0 0 0
0 0 0 0 -0 0 -0 0 0 0 0 0 0 0 0 0 0 0 0 0 0 0 0 0 0 0 0 0 0 0 0 0 0 0 0 0 0 0 0 0 0 0 0
0 0 0 0 -0 0 0 0 0 0 -0 0 0 0 0 0 0 0 0 0 0 0 0 0 0 0 0 0 0 0 0 1 1 1 1 0 0 0 0 0 0 0 0
0 0 0 0 0 0 0 0 0 0 0 0 0 0 0 0 0 0 0 0 0 0 0 0 0 0 0 0 0 0 0 1 1 1 1 1 1 1 0 0 0 0 0
0 0 0 0 0 0 0 -0 0 0 0 0 -0 0 0 0 0 0 0 0 0 0 0 0 0 0 0 0 0 1 1 2 2 1 1 1 1 1 0 0 0 0 0
0 0 0 0 -0 0 0 0 0 0 0 0 0 0 0 0 0 0 0 0 0 0 0 0 0 0 1 1 1 1 1 1 1 1 1 1 1 1 0 0 0 0 0
0 -0 0 0 0 0 0 -0 -0 0 0 0 0 0 0 0 0 0 0 0 0 0 1 1 1 0 0 1 1 1 1 1 1 1 1 1 1 1 1 0 0 0 0
0 0 0 0 0 0 -0 0 -0 0 0 0 0 0 0 0 0 0 0 0 0 0 0 0 0 1 1 1 1 1 1 1 1 1 1 1 1 1 1 0 0 0 0
-0 -0 -0 0 0 0 0 -0 -0 0 0 0 0 0 0 0 0 0 0 0 0 0 0 0 0 1 0 1 1 1 1 0 1 1 1 1 1 1 2 1 0 0 0
-0 -0 -0 -0 0 -0 0 0 -0 -0 -0 0 0 0 0 0 0 0 0 0 0 0 0 0 0 1 1 0 0 1 0 0 1 1 1 1 1 1 1 1 0 0 0
-0 -0 -0 -0 -0 -0 -0 0 -0 -0 -0 0 0 0 0 0 0 0 0 0 0 0 0 0 0 0 0 1 1 0 0 1 1 1 1 1 1 2 1 1 0 0 0
-0 -0 -0 -0 -0 -0 -0 0 0 -0 -0 -0 0 -0 -0 -0 0 -0 0 0 0 0 0 0 0 0 0 0 0 1 1 1 1 0 0 1 1 1 1 1 1 1 0
-0 -0 -0 -0 -0 -0 -0 -0 -0 -0 -0 -0 -0 -0 -0 0 0 -0 -0 -0 -0 -0 -0 0 0 0 0 0 0 0 1 1 0 0 0 0 0 0 1 1 1 2 1
0 -0 -0 -0 -0 -0 -0 -0 -0 0 -0 0 0 -0 -0 -0 0 0 0 -0 -0 0 -0 0 0 0 0 0 0 0 0 0 0 0 0 0 0 0 0 0 1 1 1
0 -0 -0 -0 -0 -0 -0 -0 -0 0 -0 0 0 0 0 -0 0 0 0 0 0 0 0 0 0 0 -0 -0 0 0 0 0 1 0 0 0 0 0 0 0 0 0 0
0 0 -0 -0 -0 -0 -0 -0 -0 -0 -0 -0 0 0 0 0 -0 -0 -0 -0 -0 -0 0 -0 -0 -0 -0 -0 -0 0 0 1 1 1 1 1 0 0 0 0 0 0 0
0 0 -0 -0 -0 -0 -0 -0 -0 -0 -0 -0 -0 0 0 0 0 0 -0 -0 0 0 0 -0 0 0 0 -0 0 0 0 1 1 1 1 1 1 0 0 0 0 0 0
-0 1 0 0 0 0 0 -0 -0 -0 -0 -0 -0 0 0 0 0 -0 -0 -0 -0 -0 -0 -0 0 0 0 0 0 0 0 1 1 1 2 1 1 0 0 0 0 0 0
1 1 1 0 0 0 0 0 0 0 0 0 0 0 0 0 0 0 -0 -0 -0 -0 -0 -0 -0 -0 -0 -0 0 -0 -0 0 0 1 2 2 1 0 0 0 0 0 0
0 0 0 0 0 0 0 0 0 0 0 0 0 0 0 0 0 0 0 0 -0 -0 -0 -0 -0 -0 0 0 -0 0 0 0 1 1 2 2 2 1 0 0 0 0 0
1 0 0 0 0 0 0 0 0 0 0 0 0 -0 -0 -0 0 0 0 0 0 1 0 0 0 0 0 0 0 0 0 1 1 2 2 2 1 0 0 0 0 0 0
0 0 0 1 0 0 0 0 -0 0 0 0 0 0 -0 -0 -0 -0 0 0 0 0 0 0 0 0 0 0 0 0 1 1 2 2 3 2 1 0 0 0 0 0 0
1 0 0 0 0 0 0 0 0 0 0 0 0 0 0 0 0 0 -0 -0 0 0 0 0 0 0 0 0 0 0 1 1 2 2 2 2 0 0 0 0 0 0 0
1 1 1 1 0 0 0 0 0 0 0 0 0 0 0 0 0 0 0 0 0 0 0 0 0 0 0 0 0 2 1 1 1 2 2 2 0 0 0 0 0 0 0
1 2 1 1 1 1 1 0 0 0 -0 0 0 0 0 0 1 0 0 0 0 0 0 0 0 -0 0 0 0 0 1 1 2 2 2 1 0 0 0 0 0 0 0
Wind_Speed_500mb
18 18 12 13 20 19 17 22 24 26 29 23 21 12 22 11 13 21 22 17 15 13 11 9 8 7 7 6 6 6 6 7 7 8 8 8 9 9 9 11 14 14 15
18 26 19 18 19 17 17 18 21 29 26 24 16 22 20 14 17 19 21 24 24 17 15 12 9 8 6 5 5 5 6 6 6 6 6 7 8 8 8 9 10 12 14
20 13 15 22 34 31 27 24 22 13 21 24 20 17 12 6 6 13 15 20 19 23 23 17 10 8 8 8 7 6 6 7 8 8 8 8 9 9 9 10 10 11 12
18 19 14 19 29 22 22 21 22 20 24 23 20 16 12 12 8 12 12 11 17 18 17 24 15 14 13 11 9 10 10 10 10 10 11 11 11 11 12 11 10 10 11
18 16 14 14 17 18 17 16 24 22 30 24 22 18 8 6 7 1 5 6 9 11 15 18 12 14 14 14 11 10 11 12 12 13 14 14 13 13 12 10 9 9 9
22 20 15 24 21 15 16 27 16 11 12 17 13 13 11 6 6 12 6 7 4 12 10 22 7 13 12 15 15 13 14 14 14 13 14 14 14 14 13 11 10 9 7
19 17 20 21 16 13 21 26 18 12 11 15 13 8 11 7 7 2 10 7 5 12 10 14 26 18 12 9 11 15 16 16 15 15 15 16 15 15 13 12 11 10 7
12 14 24 19 16 18 23 15 16 14 15 9 9 5 8 8 9 7 9 4 5 14 18 12 26 28 25 15 11 10 12 15 17 17 17 17 18 17 16 15 14 13 10
14 15 13 13 13 12 18 16 23 19 19 14 9 11 4 4 14 13 2 11 6 7 15 13 20 22 27 26 19 13 14 17 19 20 20 20 21 21 19 18 17 17 16
16 9 9 14 16 15 12 20 21 11 15 12 12 8 5 15 6 10 11 5 3 7 8 10 16 17 20 25 24 23 19 23 26 25 25 24 24 24 22 22 22 21 21
17 10 5 10 17 19 17 21 16 24 14 15 16 9 12 10 7 6 2 13 12 7 3 3 12 15 21 21 23 24 27 32 36 36 36 35 34 33 30 27 27 27 27
24 26 18 9 12 18 18 18 15 22 18 13 14 15 13 5 10 9 8 21 12 8 6 9 14 20 23 28 27 28 32 37 42 48 47 43 40 40 42 40 36 35 35
25 19 25 14 13 17 19 15 16 26 24 19 22 23 15 6 3 10 13 15 18 10 9 23 14 21 25 28 28 29 37 40 43 55 56 53 47 45 45 46 48 47 45
26 25 21 15 10 17 19 12 19 23 28 25 25 25 22 11 6 6 14 13 15 15 11 18 2 18 22 28 31 34 39 47 53 56 48 43 41 38 40 44 45 45 51
31 29 33 29 21 17 22 16 17 20 26 26 33 33 29 22 13 11 13 13 13 17 20 10 11 8 19 25 27 33 47 48 43 39 46 50 49 43 35 40 45 50 51
45 32 42 40 28 23 28 26 18 20 23 19 19 22 33 30 26 12 16 16 21 23 28 23 20 21 25 28 36 46 39 41 44 46 46 55 55 58 60 57 42 50 52
51 39 34 41 32 26 29 29 27 24 23 20 16 18 26 23 36 30 22 25 25 25 34 35 28 29 38 31 25 29 40 47 46 45 52 52 51 52 43 47 54 50 50
57 35 38 42 38 31 30 34 32 32 36 30 32 23 34 26 25 28 39 34 29 28 34 40 39 37 34 31 27 40 44 29 32 51 43 47 61 68 60 52 54 52 42
68 63 53 51 50 43 34 34 33 31 40 41 32 31 28 37 40 35 31 31 31 32 34 40 45 45 39 24 32 29 28 49 53 60 57 67 58 63 57 55 53 48 49
75 78 75 70 65 59 50 42 39 36 36 47 46 42 38 38 40 33 34 34 33 37 38 40 40 34 34 30 33 52 59 56 60 47 36 46 55 55 57 62 66 59 47
83 81 78 73 68 63 59 53 48 45 41 39 45 47 43 40 38 38 38 38 38 39 38 40 43 43 49 52 57 59 59 58 51 35 38 41 50 46 60 67 56 46 39
94 86 81 82 79 73 65 61 55 53 49 47 44 44 47 45 43 41 42 43 45 50 52 54 57 58 55 54 51 50 53 54 52 42 48 38 38 48 55 65 49 47 44
84 94 90 84 81 77 71 64 59 56 54 51 50 48 47 48 47 48 49 51 50 47 48 51 57 54 55 49 49 54 50 45 47 42 45 37 33 49 50 46 38 38 33
80 82 85 84 80 76 71 67 63 59 58 54 52 53 52 49 47 46 47 48 50 52 53 54 57 60 61 59 56 50 47 49 46 44 38 37 38 40 45 34 25 29 28
80 84 83 84 85 81 73 68 65 65 67 68 62 60 59 59 54 51 52 56 59 61 60 62 65 65 60 52 48 48 46 40 44 44 39 28 38 34 38 23 18 21 21
77 79 82 82 82 82 77 71 68 67 70 74 73 71 68 66 62 61 64 68 72 64 58 51 50 49 49 48 40 43 38 40 41 46 30 26 37 33 23 12 12 14 16
Wind_Direction_500mb
103 86 145 163 136 94 124 145 129 119 113 113 106 111 167 131 65 60 66 77 77 77 82 90 104 109 104 102 90 82 69 54 45 36 29 29 25 17 13 5 6 5 1
109 105 130 119 133 126 108 118 122 132 122 115 120 112 128 125 85 69 67 77 71 72 65 56 60 63 64 63 55 51 37 26 12 3 357 0 1 357 352 346 343 339 338
136 132 117 96 98 125 122 113 131 148 133 131 140 150 144 112 190 75 59 67 64 60 59 48 52 40 27 23 18 11 0 350 345 338 335 334 331 337 334 329 327 327 331
131 113 103 84 90 126 119 123 125 125 156 154 149 150 114 94 117 119 90 63 63 55 39 38 58 54 42 29 15 357 348 341 340 343 343 339 340 337 332 327 332 333 339
133 115 104 113 122 120 153 117 138 126 135 147 142 170 135 151 128 147 79 80 33 47 26 25 49 41 40 27 16 4 351 348 347 338 333 333 332 327 323 324 325 328 336
142 129 127 155 130 123 131 140 142 146 134 137 136 157 143 149 129 208 44 42 334 18 353 11 27 1 9 17 23 26 16 2 346 333 322 318 316 317 319 320 320 321 328
160 148 140 158 127 160 149 138 140 135 148 130 172 141 110 130 143 192 202 299 263 357 348 13 15 2 358 359 2 4 8 9 356 342 330 322 318 312 310 310 309 309 311
138 128 146 148 139 145 169 153 172 149 142 120 143 138 162 151 170 170 107 122 238 315 298 330 358 11 14 2 359 14 13 5 356 345 338 327 317 309 306 306 300 296 291
172 175 156 159 182 142 171 159 180 154 143 132 93 73 105 144 152 171 289 222 243 268 318 294 325 338 3 15 20 22 21 7 352 340 331 323 314 307 304 297 291 286 279
186 186 181 164 194 180 162 165 173 161 142 137 132 81 42 115 153 184 223 261 81 153 263 340 310 326 339 349 356 356 2 356 343 328 321 315 310 304 298 294 287 282 274
180 218 275 213 175 190 172 169 177 162 181 163 160 142 141 117 138 348 15 261 251 248 206 251 336 334 345 330 328 339 337 331 329 325 319 312 309 306 300 292 285 276 269
189 206 231 215 179 192 177 185 198 187 181 170 182 178 170 121 20 23 16 23 323 317 327 347 316 332 332 340 337 329 325 325 324 322 317 313 313 307 300 297 289 282 275
198 214 213 210 207 201 198 189 193 201 196 193 174 190 203 186 81 350 296 348 352 357 352 289 304 319 302 319 317 317 324 315 319 327 325 315 310 309 308 307 300 291 280
212 208 214 213 213 225 216 214 199 207 209 211 205 205 208 195 197 282 311 272 288 281 285 2 286 326 315 308 307 308 310 321 324 333 334 330 321 313 311 306 302 296 288
220 224 227 225 226 245 232 232 225 206 205 209 220 219 210 202 210 222 270 277 280 296 295 238 289 341 331 307 306 305 315 330 341 347 351 338 331 329 328 309 294 296 287
216 239 225 223 229 251 228 228 216 211 219 217 225 218 216 212 207 232 216 265 274 271 279 295 289 288 300 299 303 311 324 328 334 338 332 343 335 329 321 316 309 305 295
216 222 207 214 225 238 234 226 227 217 218 231 226 238 218 212 221 226 232 247 250 261 279 293 298 311 309 306 317 318 317 319 328 330 338 341 330 331 320 310 303 312 307
208 209 214 216 224 232 231 231 230 225 228 242 238 249 245 244 233 235 234 246 253 262 278 287 290 293 301 326 331 327 324 325 331 337 334 325 322 324 327 324 321 323 321
209 213 218 222 231 237 239 239 234 228 227 233 241 240 242 245 255 260 241 249 250 256 262 277 290 302 313 327 327 326 321 315 318 320 316 313 319 322 328 330 327 322 318
220 219 224 230 236 244 247 245 243 237 227 231 239 244 251 254 249 253 257 262 267 271 276 281 284 294 303 317 301 307 310 315 320 329 329 318 314 323 334 333 331 325 317
228 229 231 232 235 239 245 246 245 245 243 235 236 241 242 247 255 257 260 264 269 272 276 281 287 295 297 299 303 310 316 320 325 333 338 324 317 328 335 330 339 338 336
229 234 234 235 238 242 243 244 246 247 249 248 242 242 245 247 250 252 259 265 266 269 275 279 284 287 295 304 311 313 317 323 325 340 330 328 318 328 334 339 349 346 345
224 230 237 242 243 242 243 243 245 248 249 250 254 252 249 249 253 256 259 263 267 269 273 280 283 290 298 308 309 313 315 311 313 332 326 317 308 328 331 353 1 10 16
233 232 234 239 243 245 244 243 244 247 251 251 253 258 260 260 258 259 262 263 266 271 274 279 283 292 297 301 301 301 303 303 310 321 315 304 317 327 337 357 16 20 20
233 237 239 241 244 246 247 247 245 245 245 251 254 257 259 263 265 267 269 270 273 276 280 282 285 288 291 291 292 293 293 294 304 308 312 296 320 322 337 352 20 29 43
235 237 239 241 244 247 250 248 245 245 245 248 253 257 260 264 269 272 273 276 279 284 291 291 288 289 292 292 291 285 289 287 291 295 299 299 321 324 328 338 21 63 51
Wind_Speed_850mb
18 18 12 13 20 19 17 22 24 26 29 23 21 12 22 11 13 21 22 17 15 13 11 9 8 7 7 6 6 6 6 7 7 8 8 8 9 9 9 11 14 14 15
18 26 19 18 19 17 17 18 21 29 26 24 16 22 20 14 17 19 21 24 24 17 15 12 9 8 6 5 5 5 6 6 6 6 6 7 8 8 8 9 10 12 14
20 13 15 22 34 31 27 24 22 13 21 24 20 17 12 6 6 13 15 20 19 23 23 17 10 8 8 8 7 6 6 7 8 8 8 8 9 9 9 10 10 11 12
18 19 14 19 29 22 22 21 22 20 24 23 20 16 12 12 8 12 12 11 17 18 17 24 15 14 13 11 9 10 10 10 10 10 11 11 11 11 12 11 10 10 11
18 16 14 14 17 18 17 16 24 22 30 24 22 18 8 6 7 1 5 6 9 11 15 18 12 14 14 14 11 10 11 12 12 13 14 14 13 13 12 10 9 9 9
22 20 15 24 21 15 16 27 16 11 12 17 13 13 11 6 6 12 6 7 4 12 10 22 7 13 12 15 15 13 14 14 14 13 14 14 14 14 13 11 10 9 7
19 17 20 21 16 13 21 26 18 12 11 15 13 8 11 7 7 2 10 7 5 12 10 14 26 18 12 9 11 15 16 16 15 15 15 16 15 15 13 12 11 10 7
12 14 24 19 16 18 23 15 16 14 15 9 9 5 8 8 9 7 9 4 5 14 18 12 26 28 25 15 11 10 12 15 17 17 17 17 18 17 16 15 14 13 10
14 15 13 13 13 12 18 16 23 19 19 14 9 11 4 4 14 13 2 11 6 7 15 13 20 22 27 26 19 13 14 17 19 20 20 20 21 21 19 18 17 17 16
16 9 9 14 16 15 12 20 21 11 15 12 12 8 5 15 6 10 11 5 3 7 8 10 16 17 20 25 24 23 19 23 26 25 25 24 24 24 22 22 22 21 21
17 10 5 10 17 19 17 21 16 24 14 15 16 9 12 10 7 6 2 13 12 7 3 3 12 15 21 21 23 24 27 32 36 36 36 35 34 33 30 27 27 27 27
24 26 18 9 12 18 18 18 15 22 18 13 14 15 13 5 10 9 8 21 12 8 6 9 14 20 23 28 27 28 32 37 42 48 47 43 40 40 42 40 36 35 35
25 19 25 14 13 17 19 15 16 26 24 19 22 23 15 6 3 10 13 15 18 10 9 23 14 21 25 28 28 29 37 40 43 55 56 53 47 45 45 46 48 47 45
26 25 21 15 10 17 19 12 19 23 28 25 25 25 22 11 6 6 14 13 15 15 11 18 2 18 22 28 31 34 39 47 53 56 48 43 41 38 40 44 45 45 51
31 29 33 29 21 17 22 16 17 20 26 26 33 33 29 22 13 11 13 13 13 17 20 10 11 8 19 25 27 33 47 48 43 39 46 50 49 43 35 40 45 50 51
45 32 42 40 28 23 28 26 18 20 23 19 19 22 33 30 26 12 16 16 21 23 28 23 20 21 25 28 36 46 39 41 44 46 46 55 55 58 60 57 42 50 52
51 39 34 41 32 26 29 29 27 24 23 20 16 18 26 23 36 30 22 25 25 25 34 35 28 29 38 31 25 29 40 47 46 45 52 52 51 52 43 47 54 50 50
57 35 38 42 38 31 30 34 32 32 36 30 32 23 34 26 25 28 39 34 29 28 34 40 39 37 34 31 27 40 44 29 32 51 43 47 61 68 60 52 54 52 42
68 63 53 51 50 43 34 34 33 31 40 41 32 31 28 37 40 35 31 31 31 32 34 40 45 45 39 24 32 29 28 49 53 60 57 67 58 63 57 55 53 48 49
75 78 75 70 65 59 50 42 39 36 36 47 46 42 38 38 40 33 34 34 33 37 38 40 40 34 34 30 33 52 59 56 60 47 36 46 55 55 57 62 66 59 47
83 81 78 73 68 63 59 53 48 45 41 39 45 47 43 40 38 38 38 38 38 39 38 40 43 43 49 52 57 59 59 58 51 35 38 41 50 46 60 67 56 46 39
94 86 81 82 79 73 65 61 55 53 49 47 44 44 47 45 43 41 42 43 45 50 52 54 57 58 55 54 51 50 53 54 52 42 48 38 38 48 55 65 49 47 44
84 94 90 84 81 77 71 64 59 56 54 51 50 48 47 48 47 48 49 51 50 47 48 51 57 54 55 49 49 54 50 45 47 42 45 37 33 49 50 46 38 38 33
80 82 85 84 80 76 71 67 63 59 58 54 52 53 52 49 47 46 47 48 50 52 53 54 57 60 61 59 56 50 47 49 46 44 38 37 38 40 45 34 25 29 28
80 84 83 84 85 81 73 68 65 65 67 68 62 60 59 59 54 51 52 56 59 61 60 62 65 65 60 52 48 48 46 40 44 44 39 28 38 34 38 23 18 21 21
77 79 82 82 82 82 77 71 68 67 70 74 73 71 68 66 62 61 64 68 72 64 58 51 50 49 49 48 40 43 38 40 41 46 30 26 37 33 23 12 12 14 16
Wind_Direction_850mb
103 86 145 163 136 94 124 145 129 119 113 113 106 111 167 131 65 60 66 77 77 77 82 90 104 109 104 102 90 82 69 54 45 36 29 29 25 17 13 5 6 5 1
109 105 130 119 133 126 108 118 122 132 122 115 120 112 128 125 85 69 67 77 71 72 65 56 60 63 64 63 55 51 37 26 12 3 357 0 1 357 352 346 343 339 338
136 132 117 96 98 125 122 113 131 148 133 131 140 150 144 112 190 75 59 67 64 60 59 48 52 40 27 23 18 11 0 350 345 338 335 334 331 337 334 329 327 327 331
131 113 103 84 90 126 119 123 125 125 156 154 149 150 114 94 117 119 90 63 63 55 39 38 58 54 42 29 15 357 348 341 340 343 343 339 340 337 332 327 332 333 339
133 115 104 113 122 120 153 117 138 126 135 147 142 170 135 151 128 147 79 80 33 47 26 25 49 41 40 27 16 4 351 348 347 338 333 333 332 327 323 324 325 328 336
142 129 127 155 130 123 131 140 142 146 134 137 136 157 143 149 129 208 44 42 334 18 353 11 27 1 9 17 23 26 16 2 346 333 322 318 316 317 319 320 320 321 328
160 148 140 158 127 160 149 138 140 135 148 130 172 141 110 130 143 192 202 299 263 357 348 13 15 2 358 359 2 4 8 9 356 342 330 322 318 312 310 310 309 309 311
138 128 146 148 139 145 169 153 172 149 142 120 143 138 162 151 170 170 107 122 238 315 298 330 358 11 14 2 359 14 13 5 356 345 338 327 317 309 306 306 300 296 291
172 175 156 159 182 142 171 159 180 154 143 132 93 73 105 144 152 171 289 222 243 268 318 294 325 338 3 15 20 22 21 7 352 340 331 323 314 307 304 297 291 286 279
186 186 181 164 194 180 162 165 173 161 142 137 132 81 42 115 153 184 223 261 81 153 263 340 310 326 339 349 356 356 2 356 343 328 321 315 310 304 298 294 287 282 274
180 218 275 213 175 190 172 169 177 162 181 163 160 142 141 117 138 348 15 261 251 248 206 251 336 334 345 330 328 339 337 331 329 325 319 312 309 306 300 292 285 276 269
189 206 231 215 179 192 177 185 198 187 181 170 182 178 170 121 20 23 16 23 323 317 327 347 316 332 332 340 337 329 325 325 324 322 317 313 313 307 300 297 289 282 275
198 214 213 210 207 201 198 189 193 201 196 193 174 190 203 186 81 350 296 348 352 357 352 289 304 319 302 319 317 317 324 315 319 327 325 315 310 309 308 307 300 291 280
212 208 214 213 213 225 216 214 199 207 209 211 205 205 208 195 197 282 311 272 288 281 285 2 286 326 315 308 307 308 310 321 324 333 334 330 321 313 311 306 302 296 288
220 224 227 225 226 245 232 232 225 206 205 209 220 219 210 202 210 222 270 277 280 296 295 238 289 341 331 307 306 305 315 330 341 347 351 338 331 329 328 309 294 296 287
216 239 225 223 229 251 228 228 216 211 219 217 225 218 216 212 207 232 216 265 274 271 279 295 289 288 300 299 303 311 324 328 334 338 332 343 335 329 321 316 309 305 295
216 222 207 214 225 238 234 226 227 217 218 231 226 238 218 212 221 226 232 247 250 261 279 293 298 311 309 306 317 318 317 319 328 330 338 341 330 331 320 310 303 312 307
208 209 214 216 224 232 231 231 230 225 228 242 238 249 245 244 233 235 234 246 253 262 278 287 290 293 301 326 331 327 324 325 331 337 334 325 322 324 327 324 321 323 321
209 213 218 222 231 237 239 239 234 228 227 233 241 240 242 245 255 260 241 249 250 256 262 277 290 302 313 327 327 326 321 315 318 320 316 313 319 322 328 330 327 322 318
220 219 224 230 236 244 247 245 243 237 227 231 239 244 251 254 249 253 257 262 267 271 276 281 284 294 303 317 301 307 310 315 320 329 329 318 314 323 334 333 331 325 317
228 229 231 232 235 239 245 246 245 245 243 235 236 241 242 247 255 257 260 264 269 272 276 281 287 295 297 299 303 310 316 320 325 333 338 324 317 328 335 330 339 338 336
229 234 234 235 238 242 243 244 246 247 249 248 242 242 245 247 250 252 259 265 266 269 275 279 284 287 295 304 311 313 317 323 325 340 330 328 318 328 334 339 349 346 345
224 230 237 242 243 242 243 243 245 248 249 250 254 252 249 249 253 256 259 263 267 269 273 280 283 290 298 308 309 313 315 311 313 332 326 317 308 328 331 353 1 10 16
233 232 234 239 243 245 244 243 244 247 251 251 253 258 260 260 258 259 262 263 266 271 274 279 283 292 297 301 301 301 303 303 310 321 315 304 317 327 337 357 16 20 20
233 237 239 241 244 246 247 247 245 245 245 251 254 257 259 263 265 267 269 270 273 276 280 282 285 288 291 291 292 293 293 294 304 308 312 296 320 322 337 352 20 29 43
235 237 239 241 244 247 250 248 245 245 245 248 253 257 260 264 269 272 273 276 279 284 291 291 288 289 292 292 291 285 289 287 291 295 299 299 321 324 328 338 21 63 51